STARLINK-1559, 46077

Orbit data source: Space-Track

STARLINK-1559, 46077 is a payload satellite owned by SpaceX/Seattle (US) in LEO that was launched on Fri, 07 Aug 2020 UTC via an FALCON 9 launch vehicle from the Air Force Eastern Test Range (AFETR). Payload-class satellites include a variety of spacecraft equipped with specific instruments for various scientific and technological missions. These include communications satellites like Starlink; space stations such as the ISS; scientific satellites like the Hubble; Earth observation satellites from companies like Planet Labs, Umbra, and HawkEye 360; GPS; miniature CubeSats for education and research; and military/defense satellites.

Loading next visibility...
Identifier
46077, 2020-055BC
Orbit
LEO
Country
Flag of USUS
Related business
Manufacturer
SpaceX/Seattle
Mission
Partially operational Commercial Communications
Bus & Motor
STARLINK, Unknown motor
Mass
260 kg wet, ~248 kg dry
Launch date (UTC)
2020-08-07 (6 years ago)
Launch vehicle
FALCON 9
Launch site
Air Force Eastern Test Range (AFETR)
Object type
Payload
Rocket body
Debris
Shape & HBR
Box + 1 Pan, 10.1 m
Radar Cross Section
13.562 m², Large (>1 m²)

Expand to show TLE details & history
Last TLE update: 2 days ago

TLE from 2 days ago
0 STARLINK-1559
1 46077U 20055BC  26171.39296681  .00030690  00000-0  77683-3 0  9999
2 46077  53.0245 312.1516 0001027 327.4894  32.6045 15.39511489325355
Epoch: 2026-06-20T09:25Z
TLE epoch observation values (Epoch: 2026-06-20T09:25:52.332Z)
Latitude
-0.00007°
Longitude
-97.92474°
Altitude
447.851 km
Speed
7.645 km/s
True Right ascension
20h 48m 36s
True Declination
0° 00' 00"
Sunlit
Object was in full shadow at epoch
Visualization orbit readout
Latitude
Unknown
Longitude
Unknown
Altitude
Unknown
Speed
Unknown
Apparent Right ascension
Unknown
Apparent Declination
Unknown
Sunlit
N/A
Visualization observer readout
Local Sidereal Time
21:37:22
Azimuth
Unknown
Elevation
Unknown
Doppler factor
Unknown
Orbital elements
Apogee altitude
448.533 km
Perigee altitude
447.131 km
Semi-major axis
6,825.969 km
Eccentricity
0.0001
Inclination
53.0245°
RAAN
312.1516°
Arg. of periapsis
327.4894°
True anomaly
32.61084°
Mean anomaly
32.6045°
Eccentric anomaly
32.60767°
Mean motion
3.84855 °/min
Orbital period
93.54 mins
BSTAR
0.00077683
Loading maneuver chart data...
Computing Atmospheric mass density...

Documentation

Showing up to 5 results
|